Weather History for PHOG - January, 2012

Change the Weather History Date:

Thursday, January 12, 2012

  Actual Average Record
Temperature  
Mean Temperature 71 °F 72 °F  
Max Temperature 80 °F 81 °F 88 °F (1951)
Min Temperature 62 °F 64 °F 54 °F (1972)
Degree Days  
Heating Degree Days 0 0  
Month to date heating degree days 0 0  
Since 1 July heating degree days 0 0  
Cooling Degree Days 6 7  
Month to date cooling degree days 76 84  
Year to date cooling degree days 76 84  
Growing Degree Days 20 (Base 50)    
Moisture  
Dew Point 61 °F    
Average Humidity 71    
Maximum Humidity 87    
Minimum Humidity 54    
Precipitation  
Precipitation 0.00 in 0.09 in 1.99 in (1975)
Month to date precipitation 0.00 1.18  
Year to date precipitation 0.00 1.18  
Snow  
Snow 0.00 in - - ()
Month to date snowfall 0.0  
Since 1 July snowfall 0.0  
Snow Depth 0.00 in    
Sea Level Pressure  
Sea Level Pressure 29.95 in    
Wind  
Wind Speed 7 mph (South)    
Max Wind Speed 20 mph    
Max Gust Speed 24 mph    
Visibility 10 miles    
Events      
T = Trace of Precipitation, MM = Missing Value Source: NWS Daily Summary

Daily Weather History Graph

Daily Weather History Graph

Search for Another Location

Airport or City:

Trip Planner

Search our weather history database for the weather conditions in past years. The results will help you decide how hot, cold, wet, or windy it might be!

Date:

Astronomy

Jan. 12, 2012 Rise Set
Actual Time 7:04 AM HST 6:03 PM HST
Civil Twilight 6:41 AM HST 6:27 PM HST
Nautical Twilight 6:13 AM HST 6:54 PM HST
Astronomical Twilight 5:46 AM HST 7:21 PM HST
Moon 9:43 PM HST (1/12) 9:27 AM HST (1/12)
Length of Visible Light 11h 46m
Length of Day
10h 58m
Waning Gibbous, 85% of the Moon is Illuminated
Jan 12
Waning Gibbous
Jan 15
Last Quarter
Jan 22
New
Jan 30
First Quarter
Feb 7
Full

Hourly Weather History & Observations

Time (HST) Temp. Dew Point Humidity Pressure Visibility Wind Dir Wind Speed Gust Speed Precip Events Conditions
12:54 AM 63.0 °F 57.9 °F 84% 29.99 in 10.0 mi South 4.6 mph - N/A   Partly Cloudy
1:54 AM 64.9 °F 57.9 °F 78% 29.96 in 10.0 mi ESE 6.9 mph - N/A   Clear
2:54 AM 62.1 °F 57.0 °F 84% 29.96 in 10.0 mi Calm Calm - N/A   Mostly Cloudy
3:54 AM 64.9 °F 60.1 °F 84% 29.96 in 10.0 mi SSE 4.6 mph - N/A   Overcast
4:54 AM 66.9 °F 61.0 °F 81% 29.96 in 10.0 mi Calm Calm - N/A   Overcast
5:54 AM 66.9 °F 61.0 °F 81% 29.97 in 10.0 mi SSW 3.5 mph - N/A   Overcast
6:54 AM 66.0 °F 61.0 °F 84% 29.98 in 10.0 mi SSE 5.8 mph - N/A   Overcast
7:54 AM 66.9 °F 62.1 °F 84% 29.99 in 10.0 mi South 3.5 mph - N/A   Overcast
8:54 AM 73.0 °F 64.0 °F 73% 30.00 in 10.0 mi Calm Calm - N/A   Mostly Cloudy
9:54 AM 77.0 °F 62.1 °F 60% 30.01 in 10.0 mi Calm Calm - N/A   Overcast
10:54 AM 77.0 °F 62.1 °F 60% 29.99 in 10.0 mi NE 4.6 mph - N/A   Overcast
11:03 AM 77.0 °F 62.6 °F 61% 29.97 in 10.0 mi NE 5.8 mph - N/A   Overcast
11:10 AM 77.0 °F 62.6 °F 61% 29.97 in 10.0 mi ENE 3.5 mph - N/A   Scattered Clouds
11:54 AM 77.0 °F 61.0 °F 58% 29.96 in 10.0 mi North 3.5 mph - N/A   Mostly Cloudy
12:54 PM 78.1 °F 61.0 °F 56% 29.92 in 10.0 mi SSW 10.4 mph - N/A   Mostly Cloudy
1:54 PM 75.9 °F 62.1 °F 62% 29.89 in 10.0 mi SSW 13.8 mph - N/A   Mostly Cloudy
2:54 PM 77.0 °F 63.0 °F 62% 29.88 in 10.0 mi SSW 18.4 mph - N/A   Overcast
3:54 PM 75.9 °F 62.1 °F 62% 29.89 in 10.0 mi SSW 17.3 mph 23.0 mph N/A   Mostly Cloudy
4:54 PM 75.9 °F 61.0 °F 60% 29.91 in 10.0 mi SSW 12.7 mph - N/A   Scattered Clouds
5:54 PM 73.9 °F 60.1 °F 62% 29.92 in 10.0 mi South 13.8 mph - N/A   Scattered Clouds
6:54 PM 72.0 °F 61.0 °F 68% 29.93 in 10.0 mi SSW 9.2 mph - N/A   Clear
7:54 PM 70.0 °F 60.1 °F 71% 29.95 in 10.0 mi SW 5.8 mph - N/A   Clear
8:54 PM 70.0 °F 61.0 °F 73% 29.95 in 10.0 mi Calm Calm - N/A   Clear
9:54 PM 68.0 °F 60.1 °F 76% 29.95 in 10.0 mi SW 3.5 mph - N/A   Clear
10:54 PM 69.1 °F 61.0 °F 75% 29.93 in 10.0 mi SW 6.9 mph - N/A   Clear
11:54 PM 68.0 °F 61.0 °F 78% 29.92 in 10.0 mi South 9.2 mph - N/A   Clear